Hourly Weather Roundup
Issued by NWS Central Illinois

Home | Current Version | Previous Version | Text Only | Print | Product List | Glossary On
Versions: 1 2 3 4 5 6 7 8 9 10 11 12 13 14 15 16 17 18 19 20 21 22 23 24 25 26 27 28 29 30 31 32 33 34 35 36 37 38 39 40 41 42 43 44 45 46 47 48 49 50
005
NZUS43 KILX 060910
HWRILX

AREA WEATHER ROUNDUP
NATIONAL WEATHER SERVICE, LINCOLN IL
400 AM CDT FRI MAY 06 2016


CITY           SKY/WX    TMP DP  RH WIND       PRES   REMARKS
BLOOMINGTON    CLEAR     47  42  82 W7        30.01S
CHAMPAIGN      CLEAR     44  41  89 W5        29.99F
DANVILLE       CLEAR     43  41  95 CALM      29.96F
DECATUR        CLEAR     45  41  86 SW3       30.01S
EFFINGHAM      CLEAR     45  45 100 CALM      30.02S
FLORA          CLEAR     50  45  84 CALM      30.01S
GALESBURG      CLEAR     44  39  82 S5        30.00S
JACKSONVILLE   CLEAR     46  40  77 SW3       30.03R
LACON          CLEAR     45  43  93 CALM      29.99S FOG
LAWRENCEVILLE  CLEAR     46  44  93 NW6       30.00S
LITCHFIELD     CLEAR     44  41  89 CALM      30.02S
$$


CITY           SKY/WX    TMP DP  RH WIND       PRES   REMARKS
LINCOLN        CLEAR     45  43  94 CALM      30.01S
MACOMB         CLEAR     46  40  81 SW6       30.03S
MATTOON        CLEAR     47  41  80 W3        29.99F
MT CARMEL AP   CLEAR     44  42  93 CALM      30.00S
OLNEY-NOBLE AP CLEAR     45  45 100 CALM      30.00S
PARIS          CLEAR     44  42  95 CALM      30.00S
PEORIA         CLEAR     45  40  82 CALM      30.01S
PONTIAC        CLEAR     45  42  91 CALM      30.00S
RANTOUL        CLEAR     46  43  89 W5        29.99S
ROBINSON       CLEAR     41  40  98 CALM      30.01S
SPRINGFIELD    CLEAR     44  41  89 CALM      30.02S
TAYLORVILLE    CLEAR     44  43  96 W3        30.02S
$$

...REGIONAL REPORTS...


CITY           SKY/WX    TMP DP  RH WIND       PRES   REMARKS
CHICAGO O`HARE CLOUDY    45  40  82 CALM      29.96S
KANKAKEE       CLEAR     42  39  90 CALM      29.99S
MOLINE         CLEAR     46  40  79 CALM      29.98S
MOUNT STERLING CLEAR     45  39  79 SW5       30.02S
MOUNT VERNON   CLEAR     43  36  75 CALM      30.02S
PITTSFIELD     CLEAR     48  42  80 W5        30.04S
QUINCY         CLEAR     47  40  76 SW7       30.02S
ROCKFORD       CLOUDY    46  40  79 S5        29.99S
$$


CITY           SKY/WX    TMP DP  RH WIND       PRES   REMARKS
BURLINGTON     CLEAR     49  40  71 W3        30.00S
CEDAR RAPIDS   CLEAR     49  39  68 SW6       29.96S
DES MOINES     CLEAR     53  41  63 S3        29.99S
KIRKSVILLE     CLEAR     50  35  56 SW6       30.04S
OTTUMWA        CLEAR     51  37  58 SW7       30.00S
ST LOUIS       CLEAR     50  42  74 CALM      30.04S
$$


CITY           SKY/WX    TMP DP  RH WIND       PRES   REMARKS
TERRE HAUTE    CLEAR     45  41  86 CALM      29.99S
EVANSVILLE     CLEAR     47  42  83 CALM      30.00S
INDIANAPOLIS   CLEAR     44  38  79 NW7       29.95S
LAFAYETTE      CLEAR     39  38  96 CALM      29.98F
MADISON        PTCLDY    46  40  79 CALM      29.94S
MILWAUKEE      CLOUDY    49  40  71 S5        29.94F
$$






USA.gov is the U.S. government's official web portal to all federal, state and local government web resources and services.